TimeEST,TemperatureF,Dew PointF,Humidity,Sea Level PressureIn,VisibilityMPH,Wind Direction,Wind SpeedMPH,Gust SpeedMPH,PrecipitationIn,Events,Conditions,WindDirDegrees,DateUTC
12:15 AM,66.2,64.4,94,30.22,3.0,NE,4.6,-,N/A,,Mostly Cloudy,40,2013-01-06 05:15:00
12:20 AM,66.2,64.4,94,30.22,1.5,NE,4.6,-,N/A,,Mostly Cloudy,40,2013-01-06 05:20:00
12:29 AM,66.2,64.4,94,30.22,0.2,NE,5.8,-,N/A,Fog,Fog,50,2013-01-06 05:29:00
12:53 AM,66.0,64.9,96,30.21,0.2,ENE,5.8,-,N/A,Fog,Fog,70,2013-01-06 05:53:00
1:53 AM,66.0,64.9,96,30.19,0.5,East,5.8,-,N/A,Fog,Fog,80,2013-01-06 06:53:00
2:53 AM,66.0,66.0,100,30.18,0.2,East,4.6,-,N/A,Fog,Fog,80,2013-01-06 07:53:00
3:53 AM,66.9,66.0,97,30.17,0.5,East,4.6,-,N/A,Fog,Fog,100,2013-01-06 08:53:00
5:04 AM,66.2,66.2,100,30.16,1.2,East,5.8,-,N/A,,Overcast,90,2013-01-06 10:04:00
5:16 AM,66.2,66.2,100,30.16,0.8,ENE,4.6,-,N/A,,Mist,60,2013-01-06 10:16:00
5:53 AM,66.0,64.9,96,30.16,0.2,ENE,6.9,-,N/A,Fog,Fog,70,2013-01-06 10:53:00
6:53 AM,66.0,64.9,96,30.17,0.8,East,5.8,-,N/A,,Mist,80,2013-01-06 11:53:00
7:53 AM,66.0,64.9,96,30.18,0.2,East,4.6,-,N/A,Fog,Fog,80,2013-01-06 12:53:00
8:53 AM,66.9,66.0,97,30.19,0.2,ENE,4.6,-,N/A,Fog,Fog,70,2013-01-06 13:53:00
9:15 AM,68.0,66.2,94,30.19,2.0,East,5.8,-,N/A,,Overcast,80,2013-01-06 14:15:00
9:22 AM,68.0,66.2,94,30.19,1.0,East,8.1,-,N/A,,Overcast,90,2013-01-06 14:22:00
9:46 AM,69.8,68.0,94,30.19,5.0,East,5.8,-,N/A,,Overcast,100,2013-01-06 14:46:00
9:53 AM,69.1,68.0,96,30.19,5.0,Variable,5.8,-,N/A,,Overcast,0,2013-01-06 14:53:00
10:04 AM,69.8,68.0,94,30.19,7.0,East,8.1,-,N/A,,Overcast,100,2013-01-06 15:04:00
10:42 AM,75.2,68.0,78,30.18,10.0,SSE,8.1,-,N/A,,Mostly Cloudy,150,2013-01-06 15:42:00
10:53 AM,75.0,68.0,79,30.18,10.0,East,5.8,-,N/A,,Mostly Cloudy,100,2013-01-06 15:53:00
11:53 AM,80.1,68.0,67,30.16,10.0,SSE,8.1,-,N/A,,Mostly Cloudy,150,2013-01-06 16:53:00
12:53 PM,80.1,66.9,64,30.12,10.0,South,10.4,-,N/A,,Partly Cloudy,180,2013-01-06 17:53:00
1:53 PM,80.1,66.0,62,30.09,10.0,South,5.8,-,N/A,,Scattered Clouds,190,2013-01-06 18:53:00
2:53 PM,82.9,66.9,58,30.08,10.0,WSW,15.0,-,N/A,,Mostly Cloudy,250,2013-01-06 19:53:00
3:53 PM,81.0,64.9,58,30.09,10.0,WSW,15.0,-,N/A,,Clear,250,2013-01-06 20:53:00
4:53 PM,78.1,68.0,71,30.10,10.0,West,9.2,-,N/A,,Clear,260,2013-01-06 21:53:00
5:53 PM,75.0,68.0,79,30.11,10.0,WSW,5.8,-,N/A,,Overcast,250,2013-01-06 22:53:00
6:53 PM,73.9,68.0,82,30.12,10.0,West,3.5,-,N/A,,Overcast,280,2013-01-06 23:53:00
7:53 PM,72.0,68.0,87,30.13,10.0,Calm,Calm,-,N/A,,Partly Cloudy,0,2013-01-07 00:53:00
8:53 PM,69.1,66.9,93,30.14,10.0,NW,3.5,-,N/A,,Clear,320,2013-01-07 01:53:00
9:53 PM,69.1,68.0,96,30.15,10.0,North,5.8,-,N/A,,Clear,350,2013-01-07 02:53:00
10:09 PM,69.8,68.0,94,30.15,10.0,NNW,5.8,-,N/A,,Partly Cloudy,330,2013-01-07 03:09:00
10:20 PM,69.8,68.0,94,30.15,10.0,NNW,5.8,-,N/A,,Mostly Cloudy,340,2013-01-07 03:20:00
10:31 PM,69.8,66.2,88,30.15,10.0,NW,6.9,-,N/A,,Overcast,320,2013-01-07 03:31:00
10:48 PM,69.8,66.2,88,30.16,10.0,North,4.6,-,N/A,,Mostly Cloudy,350,2013-01-07 03:48:00
10:53 PM,69.1,66.9,93,30.16,10.0,North,4.6,-,N/A,,Scattered Clouds,360,2013-01-07 03:53:00
11:53 PM,66.9,64.9,93,30.14,9.0,East,3.5,-,N/A,,Clear,80,2013-01-07 04:53:00